Location: Unspecified
(33.6682°S, 0.0000°E)
Time: 04:34:42
(UTC+00:00)

Vanguard 2 Rocket - Visible Passes

Search period start: 25 June 2019 00:00
Search period end: 05 July 2019 00:00
Orbit: 555 x 3326 km, 32.9° (Epoch: 24 June)

Date Brightness Start Highest point End Pass type
(mag) Time Alt. Az. Time Alt. Az. Time Alt. Az.
25 Jun 11.2 03:48:41 10° N 03:59:14 17° NE 04:08:48 10° ENE visible
25 Jun 10.4 05:58:22 10° NNW 06:16:07 43° NNE 06:28:42 10° E visible
26 Jun 10.6 04:57:48 10° NNW 05:14:38 34° NE 05:27:58 10° E visible
27 Jun 10.9 03:58:16 10° N 04:13:09 26° NE 04:26:14 10° E visible
27 Jun 10.0 06:11:05 10° NW 06:30:12 55° NNE 06:43:27 10° E visible
28 Jun 11.1 03:00:16 10° N 03:11:46 18° NE 03:22:46 10° ENE visible
28 Jun 10.3 05:09:56 10° NW 05:28:35 46° NNE 05:43:04 10° E visible
29 Jun 11.2 02:07:13 10° NE 02:10:32 11° NE 02:13:52 10° ENE visible
29 Jun 10.5 04:09:38 10° NNW 04:26:56 37° NE 04:41:58 10° E visible
29 Jun 9.8 06:24:23 10° NW 06:44:18 67° NNE 06:57:57 10° E visible
30 Jun 10.7 03:10:22 10° N 03:25:24 28° NE 03:39:51 10° E visible
30 Jun 10.0 05:22:48 10° NW 05:42:32 58° NNE 05:57:44 10° E visible
01 Jul 10.9 02:12:37 10° N 02:24:09 19° NE 02:35:58 10° E visible
01 Jul 10.2 04:21:59 10° NW 04:40:40 48° NNE 04:56:58 10° E visible
01 Jul 9.6 06:38:09 10° WNW 06:58:29 77° NNE 07:12:23 10° E visible
02 Jul 11.0 01:19:27 10° NE 01:23:09 11° NE 01:26:58 10° ENE visible
02 Jul 10.4 03:22:01 10° NNW 03:38:58 39° NE 03:55:27 10° E visible
02 Jul 9.8 05:36:13 10° WNW 05:56:32 69° NNE 06:12:12 10° E visible
03 Jul 10.6 02:27:39 19° N 02:37:33 29° NE 02:52:51 10° E visible
03 Jul 9.9 04:35:00 10° NW 04:54:30 60° NNE 05:11:34 10° E visible
04 Jul 10.7 01:33:11 18° NE 01:36:31 19° NE 01:48:30 10° E visible
04 Jul 10.0 03:39:07 22° NNW 03:52:33 50° NNE 04:10:20 10° E visible
04 Jul 9.7 05:50:03 10° WNW 06:10:41 79° NNE 06:26:36 10° E visible
